Time,TemperatureF,DewpointF,PressureIn,WindDirection,WindDirectionDegrees,WindSpeedMPH,WindSpeedGustMPH,Humidity,HourlyPrecipIn,Conditions,Clouds,dailyrainin,SoftwareType,DateUTC
2013-11-25 00:12:00,25.4,11.0,30.67,West,275,3.0,5.0,55,0.00,,,0.00,weatherlink.com 1.10,2013-11-25 07:12:00,
2013-11-25 00:27:00,26.6,10.0,30.67,West,275,2.0,6.0,50,0.00,,,0.00,weatherlink.com 1.10,2013-11-25 07:27:00,
2013-11-25 00:42:00,29.0,9.0,30.66,SSW,208,0.0,3.0,44,0.00,,,0.00,weatherlink.com 1.10,2013-11-25 07:42:00,
2013-11-25 00:57:00,30.1,9.0,30.66,SW,217,3.0,3.0,41,0.00,,,0.00,weatherlink.com 1.10,2013-11-25 07:57:00,
2013-11-25 01:12:00,29.5,10.0,30.66,SW,217,1.0,3.0,44,0.00,,,0.00,weatherlink.com 1.10,2013-11-25 08:12:00,
2013-11-25 01:27:00,31.2,10.0,30.65,SSW,212,1.0,6.0,41,0.00,,,0.00,weatherlink.com 1.10,2013-11-25 08:27:00,
2013-11-25 01:42:00,30.7,9.0,30.66,SSW,211,2.0,4.0,40,0.00,,,0.00,weatherlink.com 1.10,2013-11-25 08:42:00,
2013-11-25 01:57:00,32.9,10.0,30.66,WSW,245,3.0,10.0,38,0.00,,,0.00,weatherlink.com 1.10,2013-11-25 08:57:00,
2013-11-25 02:12:00,32.5,10.0,30.66,NE,49,2.0,9.0,39,0.00,,,0.00,weatherlink.com 1.10,2013-11-25 09:12:00,
2013-11-25 02:27:00,30.6,10.0,30.65,NE,47,0.0,4.0,42,0.00,,,0.00,weatherlink.com 1.10,2013-11-25 09:27:00,
2013-11-25 02:42:00,31.8,9.0,30.65,SW,230,1.0,3.0,39,0.00,,,0.00,weatherlink.com 1.10,2013-11-25 09:42:00,
2013-11-25 02:57:00,33.8,9.0,30.65,SSW,199,7.0,11.0,35,0.00,,,0.00,weatherlink.com 1.10,2013-11-25 09:57:00,
2013-11-25 03:12:00,34.9,9.0,30.65,SW,218,7.0,16.0,34,0.00,,,0.00,weatherlink.com 1.10,2013-11-25 10:12:00,
2013-11-25 03:27:00,33.8,11.0,30.64,SW,223,4.0,7.0,38,0.00,,,0.00,weatherlink.com 1.10,2013-11-25 10:27:00,
2013-11-25 03:42:00,34.3,9.0,30.63,SW,216,6.0,12.0,35,0.00,,,0.00,weatherlink.com 1.10,2013-11-25 10:42:00,
2013-11-25 03:57:00,34.9,10.0,30.63,SSW,213,8.0,13.0,35,0.00,,,0.00,weatherlink.com 1.10,2013-11-25 10:57:00,
2013-11-25 04:12:00,34.6,9.0,30.62,SSW,206,2.0,14.0,34,0.00,,,0.00,weatherlink.com 1.10,2013-11-25 11:12:00,
2013-11-25 04:27:00,33.8,10.0,30.62,SW,218,1.0,10.0,37,0.00,,,0.00,weatherlink.com 1.10,2013-11-25 11:27:00,
2013-11-25 04:42:00,32.9,10.0,30.63,SSW,204,3.0,4.0,38,0.00,,,0.00,weatherlink.com 1.10,2013-11-25 11:42:00,
2013-11-25 04:57:00,32.1,11.0,30.63,SW,214,0.0,5.0,42,0.00,,,0.00,weatherlink.com 1.10,2013-11-25 11:57:00,
2013-11-25 05:12:00,31.5,11.0,30.63,SSW,206,3.0,6.0,42,0.00,,,0.00,weatherlink.com 1.10,2013-11-25 12:12:00,
2013-11-25 05:27:00,30.1,11.0,30.63,SSW,208,2.0,4.0,46,0.00,,,0.00,weatherlink.com 1.10,2013-11-25 12:27:00,
2013-11-25 05:42:00,30.9,11.0,30.62,SSW,208,0.0,4.0,44,0.00,,,0.00,weatherlink.com 1.10,2013-11-25 12:42:00,
2013-11-25 05:57:00,29.8,11.0,30.62,SSW,208,4.0,4.0,45,0.00,,,0.00,weatherlink.com 1.10,2013-11-25 12:57:00,
2013-11-25 06:12:00,32.5,11.0,30.62,SW,236,0.0,5.0,40,0.00,,,0.00,weatherlink.com 1.10,2013-11-25 13:12:00,
2013-11-25 06:27:00,30.9,12.0,30.62,SW,235,0.0,6.0,46,0.00,,,0.00,weatherlink.com 1.10,2013-11-25 13:27:00,
2013-11-25 06:42:00,31.8,11.0,30.61,SSW,199,3.0,6.0,42,0.00,,,0.00,weatherlink.com 1.10,2013-11-25 13:42:00,
2013-11-25 06:57:00,28.2,12.0,30.62,SSW,199,0.0,3.0,50,0.00,,,0.00,weatherlink.com 1.10,2013-11-25 13:57:00,
2013-11-25 07:12:00,25.8,12.0,30.63,SSW,199,0.0,1.0,55,0.00,,,0.00,weatherlink.com 1.10,2013-11-25 14:12:00,
2013-11-25 07:27:00,24.4,11.0,30.64,SSW,199,1.0,3.0,58,0.00,,,0.00,weatherlink.com 1.10,2013-11-25 14:27:00,
2013-11-25 07:42:00,23.6,11.0,30.65,SSW,199,0.0,1.0,59,0.00,,,0.00,weatherlink.com 1.10,2013-11-25 14:42:00,
2013-11-25 07:57:00,22.7,12.0,30.65,SSW,200,0.0,4.0,63,0.00,,,0.00,weatherlink.com 1.10,2013-11-25 14:57:00,
2013-11-25 08:12:00,23.6,12.0,30.65,SSW,199,0.0,3.0,62,0.00,,,0.00,weatherlink.com 1.10,2013-11-25 15:12:00,
2013-11-25 08:27:00,26.3,13.0,30.64,NE,40,2.0,3.0,57,0.00,,,0.00,weatherlink.com 1.10,2013-11-25 15:27:00,
2013-11-25 08:42:00,30.4,13.0,30.65,East,89,5.0,6.0,49,0.00,,,0.00,weatherlink.com 1.10,2013-11-25 15:42:00,
2013-11-25 08:57:00,29.1,14.0,30.65,East,93,5.0,8.0,54,0.00,,,0.00,weatherlink.com 1.10,2013-11-25 15:57:00,
2013-11-25 09:13:00,30.6,15.0,30.65,East,95,6.0,7.0,53,0.00,,,0.00,weatherlink.com 1.10,2013-11-25 16:13:00,
2013-11-25 09:28:00,31.0,15.0,30.65,East,93,3.0,6.0,52,0.00,,,0.00,weatherlink.com 1.10,2013-11-25 16:28:00,
2013-11-25 09:43:00,32.8,16.0,30.65,East,93,1.0,5.0,50,0.00,,,0.00,weatherlink.com 1.10,2013-11-25 16:43:00,
2013-11-25 09:58:00,33.5,15.0,30.65,East,93,3.0,6.0,47,0.00,,,0.00,weatherlink.com 1.10,2013-11-25 16:58:00,
2013-11-25 10:28:00,34.4,17.0,30.65,East,93,5.0,6.0,49,0.00,,,0.00,weatherlink.com 1.10,2013-11-25 17:28:00,
2013-11-25 10:43:00,34.1,18.0,30.65,East,95,2.0,6.0,51,0.00,,,0.00,weatherlink.com 1.10,2013-11-25 17:43:00,
2013-11-25 10:58:00,35.3,20.0,30.65,ESE,104,4.0,6.0,55,0.00,,,0.00,weatherlink.com 1.10,2013-11-25 17:58:00,
2013-11-25 11:13:00,35.8,19.0,30.65,East,89,5.0,8.0,51,0.00,,,0.00,weatherlink.com 1.10,2013-11-25 18:13:00,
2013-11-25 11:28:00,36.9,18.0,30.64,ESE,102,5.0,8.0,46,0.00,,,0.00,weatherlink.com 1.10,2013-11-25 18:28:00,
2013-11-25 11:43:00,37.5,18.0,30.64,East,98,7.0,7.0,45,0.00,,,0.00,weatherlink.com 1.10,2013-11-25 18:43:00,
2013-11-25 11:58:00,38.5,14.0,30.64,ESE,104,4.0,7.0,37,0.00,,,0.00,weatherlink.com 1.10,2013-11-25 18:58:00,
2013-11-25 12:13:00,39.2,14.0,30.63,ESE,106,7.0,8.0,36,0.00,,,0.00,weatherlink.com 1.10,2013-11-25 19:13:00,
2013-11-25 12:28:00,39.9,15.0,30.62,ESE,109,4.0,8.0,36,0.00,,,0.00,weatherlink.com 1.10,2013-11-25 19:28:00,
2013-11-25 12:43:00,40.5,13.0,30.62,East,90,5.0,7.0,33,0.00,,,0.00,weatherlink.com 1.10,2013-11-25 19:43:00,
2013-11-25 12:58:00,41.2,14.0,30.61,East,90,2.0,6.0,33,0.00,,,0.00,weatherlink.com 1.10,2013-11-25 19:58:00,
2013-11-25 13:13:00,41.1,15.0,30.61,ESE,114,3.0,8.0,35,0.00,,,0.00,weatherlink.com 1.10,2013-11-25 20:13:00,
2013-11-25 13:28:00,41.5,16.0,30.60,ESE,111,7.0,9.0,36,0.00,,,0.00,weatherlink.com 1.10,2013-11-25 20:28:00,
2013-11-25 13:43:00,40.6,17.0,30.60,East,94,5.0,9.0,38,0.01,,,0.01,weatherlink.com 1.10,2013-11-25 20:43:00,
2013-11-25 13:58:00,41.1,16.0,30.59,East,88,6.0,8.0,36,0.01,,,0.01,weatherlink.com 1.10,2013-11-25 20:58:00,
2013-11-25 14:13:00,41.1,18.0,30.59,East,100,7.0,9.0,40,0.01,,,0.01,weatherlink.com 1.10,2013-11-25 21:13:00,
2013-11-25 14:28:00,40.6,20.0,30.59,ESE,104,9.0,11.0,43,0.01,,,0.01,weatherlink.com 1.10,2013-11-25 21:28:00,
2013-11-25 14:43:00,40.3,20.0,30.59,East,101,4.0,10.0,45,0.00,,,0.01,weatherlink.com 1.10,2013-11-25 21:43:00,
2013-11-25 14:58:00,39.6,20.0,30.59,East,101,3.0,9.0,46,0.00,,,0.01,weatherlink.com 1.10,2013-11-25 21:58:00,
2013-11-25 15:13:00,39.2,19.0,30.59,East,96,6.0,9.0,45,0.00,,,0.01,weatherlink.com 1.10,2013-11-25 22:13:00,
2013-11-25 15:28:00,38.9,19.0,30.60,ESE,122,5.0,8.0,45,0.00,,,0.01,weatherlink.com 1.10,2013-11-25 22:28:00,
2013-11-25 15:43:00,38.2,18.0,30.61,ESE,113,8.0,8.0,45,0.00,,,0.01,weatherlink.com 1.10,2013-11-25 22:43:00,
2013-11-25 15:58:00,37.8,19.0,30.61,East,80,1.0,7.0,47,0.00,,,0.01,weatherlink.com 1.10,2013-11-25 22:58:00,
2013-11-25 16:13:00,36.8,19.0,30.61,East,95,1.0,5.0,48,0.00,,,0.01,weatherlink.com 1.10,2013-11-25 23:13:00,
2013-11-25 16:28:00,33.8,19.0,30.61,East,95,0.0,1.0,55,0.00,,,0.01,weatherlink.com 1.10,2013-11-25 23:28:00,
2013-11-25 16:43:00,32.4,19.0,30.62,East,95,0.0,2.0,59,0.00,,,0.01,weatherlink.com 1.10,2013-11-25 23:43:00,
2013-11-25 16:58:00,31.2,19.0,30.62,East,95,0.0,3.0,61,0.00,,,0.01,weatherlink.com 1.10,2013-11-25 23:58:00,
2013-11-25 17:13:00,29.3,19.0,30.63,East,96,2.0,5.0,66,0.00,,,0.01,weatherlink.com 1.10,2013-11-26 00:13:00,
2013-11-25 17:28:00,28.5,19.0,30.64,WSW,244,2.0,3.0,67,0.00,,,0.01,weatherlink.com 1.10,2013-11-26 00:28:00,
2013-11-25 17:43:00,28.8,18.0,30.64,WSW,245,4.0,5.0,65,0.00,,,0.01,weatherlink.com 1.10,2013-11-26 00:43:00,
2013-11-25 17:58:00,28.2,18.0,30.65,WSW,245,4.0,4.0,66,0.00,,,0.01,weatherlink.com 1.10,2013-11-26 00:58:00,
2013-11-25 18:13:00,27.6,18.0,30.66,WSW,245,3.0,5.0,66,0.00,,,0.01,weatherlink.com 1.10,2013-11-26 01:13:00,
2013-11-25 18:28:00,27.0,17.0,30.66,WSW,245,2.0,4.0,67,0.00,,,0.01,weatherlink.com 1.10,2013-11-26 01:28:00,
2013-11-25 18:43:00,27.3,18.0,30.65,WSW,245,2.0,4.0,67,0.00,,,0.01,weatherlink.com 1.10,2013-11-26 01:43:00,
2013-11-25 18:58:00,27.2,17.0,30.66,WSW,245,4.0,4.0,65,0.00,,,0.01,weatherlink.com 1.10,2013-11-26 01:58:00,
2013-11-25 19:13:00,26.3,17.0,30.66,WSW,245,3.0,5.0,67,0.00,,,0.01,weatherlink.com 1.10,2013-11-26 02:13:00,
2013-11-25 19:28:00,25.4,17.0,30.66,WSW,245,3.0,5.0,69,0.00,,,0.01,weatherlink.com 1.10,2013-11-26 02:28:00,
2013-11-25 19:43:00,25.4,17.0,30.66,WSW,245,2.0,4.0,70,0.00,,,0.01,weatherlink.com 1.10,2013-11-26 02:43:00,
2013-11-25 19:58:00,25.4,16.0,30.66,WSW,245,2.0,5.0,68,0.00,,,0.01,weatherlink.com 1.10,2013-11-26 02:58:00,
2013-11-25 20:13:00,24.2,16.0,30.66,WSW,245,3.0,4.0,70,0.00,,,0.01,weatherlink.com 1.10,2013-11-26 03:13:00,
2013-11-25 20:28:00,23.8,16.0,30.66,WSW,245,4.0,4.0,71,0.00,,,0.01,weatherlink.com 1.10,2013-11-26 03:28:00,
2013-11-25 20:43:00,24.2,16.0,30.67,WSW,245,3.0,5.0,71,0.00,,,0.01,weatherlink.com 1.10,2013-11-26 03:43:00,
2013-11-25 20:58:00,25.0,16.0,30.66,WSW,245,4.0,5.0,69,0.00,,,0.01,weatherlink.com 1.10,2013-11-26 03:58:00,
2013-11-25 21:13:00,26.6,17.0,30.67,SW,214,4.0,6.0,66,0.00,,,0.01,weatherlink.com 1.10,2013-11-26 04:13:00,
2013-11-25 21:28:00,26.0,17.0,30.67,SW,214,3.0,7.0,68,0.00,,,0.01,weatherlink.com 1.10,2013-11-26 04:28:00,
2013-11-25 21:43:00,25.0,16.0,30.67,SW,214,3.0,4.0,69,0.00,,,0.01,weatherlink.com 1.10,2013-11-26 04:43:00,
2013-11-25 21:58:00,24.4,16.0,30.68,SW,214,3.0,3.0,69,0.00,,,0.01,weatherlink.com 1.10,2013-11-26 04:58:00,
2013-11-25 22:13:00,24.2,16.0,30.69,SW,222,5.0,6.0,71,0.00,,,0.01,weatherlink.com 1.10,2013-11-26 05:13:00,
2013-11-25 22:28:00,24.7,16.0,30.70,SW,224,6.0,6.0,69,0.00,,,0.01,weatherlink.com 1.10,2013-11-26 05:28:00,
2013-11-25 22:43:00,24.4,16.0,30.70,SW,231,2.0,5.0,70,0.00,,,0.01,weatherlink.com 1.10,2013-11-26 05:43:00,
2013-11-25 22:58:00,24.2,16.0,30.70,SW,231,2.0,4.0,70,0.00,,,0.01,weatherlink.com 1.10,2013-11-26 05:58:00,
2013-11-25 23:13:00,23.0,15.0,30.71,West,280,2.0,5.0,70,0.00,,,0.01,weatherlink.com 1.10,2013-11-26 06:13:00,
2013-11-25 23:28:00,22.7,15.0,30.71,West,277,3.0,4.0,72,0.00,,,0.01,weatherlink.com 1.10,2013-11-26 06:28:00,
2013-11-25 23:44:00,23.5,15.0,30.71,West,260,1.0,4.0,71,0.00,,,0.01,weatherlink.com 1.10,2013-11-26 06:44:00,
2013-11-25 23:59:00,23.8,15.0,30.71,West,260,4.0,5.0,69,0.00,,,0.01,weatherlink.com 1.10,2013-11-26 06:59:00,